Showing default

D-STAR ONE SPARROW, 43881

Orbit data source: Space-Track

D-STAR ONE SPARROW, 43881 is a payload satellite owned by German Orb Sys (DE) in SSO that was launched on Thu, 27 Dec 2018 UTC via a SOYUZ-2-1A launch vehicle from the Vostochny Cosmodrome (VOSTO). Payload-class satellites include a variety of spacecraft equipped with specific instruments for various scientific and technological missions. These include communications satellites like Starlink; space stations such as the ISS; scientific satellites like the Hubble; Earth observation satellites from companies like Planet Labs, Umbra, and HawkEye 360; GPS; miniature CubeSats for education and research; and military/defense satellites.

Loading next visibility...
Identifier
43881, 2018-111F
Orbit
SSO
Country
Flag of DEDE / GER
Related business
Manufacturer
German Orb Sys
Mission
Operational Commercial Technology
Bus & Motor
CUBESAT 3U, Unknown motor
Mass
3 kg wet, 3 kg dry
Launch date (UTC)
2018-12-27 (7 years ago)
Launch vehicle
SOYUZ-2-1A
Launch site
Vostochny Cosmodrome (VOSTO)
Object type
Payload
Rocket body
Debris
Shape & HBR
Box + 1 Ant, 0.5 m
Radar Cross Section
0.061 m², Medium (>0.1 m² and < 1m²)

Expand to show TLE details & history
Last TLE update: 2 days ago

TLE from 2 days ago
0 D-STAR ONE SPARROW
1 43881U 18111F   26171.37163720  .00155211  00000-0  10166-2 0  9993
2 43881  97.6107 112.5154 0004538 117.8281 242.3444 15.75315378411872
Epoch: 2026-06-20T08:55Z
TLE epoch observation values (Epoch: 2026-06-20T08:55:09.454Z)
Latitude
0.00003°
Longitude
70.13879°
Altitude
348.31 km
Speed
7.699 km/s
True Right ascension
07h 30m 03s
True Declination
0° 00' 00"
Sunlit
Object was in daylight at epoch
Visualization orbit readout
Latitude
Unknown
Longitude
Unknown
Altitude
Unknown
Speed
Unknown
Apparent Right ascension
Unknown
Apparent Declination
Unknown
Sunlit
N/A
Visualization observer readout
Local Sidereal Time
20:17:15
Azimuth
Unknown
Elevation
Unknown
Doppler factor
Unknown
Orbital elements
Apogee altitude
343.684 km
Perigee altitude
337.587 km
Semi-major axis
6,718.772 km
Eccentricity
0.00045
Inclination
97.6107°
RAAN
112.5154°
Arg. of periapsis
117.8281°
True anomaly
242.29835°
Mean anomaly
242.3444°
Eccentric anomaly
242.32137°
Mean motion
3.94102 °/min
Orbital period
91.35 mins
BSTAR
0.0010166
Loading maneuver chart data...
Computing Atmospheric mass density...

Documentation

Showing up to 5 results
|